Temp
-15 -14 -14 -14 -14 -14 -14 -14 -15 -15 -15 -15 -15 -15 -15 -15 -15 -15 -15 -15 -15 -15 -16 -16 -16 -17 -17 -17 -17 -17 -18 -18
-14 -14 -14 -15 -15 -15 -15 -15 -15 -15 -15 -15 -15 -15 -15 -15 -15 -15 -15 -15 -16 -16 -16 -16 -16 -17 -17 -17 -17 -18 -18 -18
-15 -15 -15 -15 -15 -15 -15 -15 -16 -15 -15 -15 -15 -15 -15 -15 -15 -15 -15 -16 -16 -16 -16 -16 -17 -17 -17 -17 -18 -18 -18 -18
-14 -15 -15 -15 -15 -15 -15 -15 -15 -15 -15 -15 -15 -15 -15 -15 -15 -16 -16 -16 -16 -16 -17 -17 -17 -17 -18 -18 -18 -18 -19 -19
-15 -15 -15 -15 -15 -15 -15 -15 -15 -15 -15 -15 -15 -15 -15 -16 -16 -16 -16 -16 -16 -17 -17 -17 -17 -18 -18 -18 -19 -19 -19 -19
-15 -15 -15 -15 -15 -15 -15 -16 -16 -16 -15 -15 -15 -16 -16 -16 -16 -16 -16 -16 -17 -17 -17 -17 -18 -18 -19 -19 -19 -19 -19 -20
-15 -15 -15 -15 -15 -15 -15 -15 -15 -15 -15 -15 -15 -15 -15 -16 -16 -16 -17 -17 -17 -17 -18 -18 -19 -19 -19 -19 -19 -19 -20 -20
-15 -15 -15 -15 -15 -15 -15 -15 -15 -15 -15 -15 -15 -15 -16 -16 -16 -16 -17 -17 -17 -18 -18 -19 -19 -19 -20 -19 -19 -20 -20 -20
-15 -15 -15 -15 -15 -15 -15 -15 -15 -15 -16 -16 -16 -16 -16 -16 -17 -17 -18 -18 -18 -19 -19 -19 -19 -19 -19 -20 -20 -20 -20 -21
-15 -15 -15 -15 -15 -15 -16 -16 -16 -16 -16 -16 -16 -16 -17 -17 -18 -18 -18 -19 -19 -19 -19 -19 -19 -20 -20 -20 -20 -20 -20 -21
-15 -15 -15 -15 -15 -15 -15 -16 -16 -16 -16 -16 -17 -17 -18 -18 -19 -19 -19 -19 -19 -19 -19 -20 -20 -20 -20 -20 -20 -20 -21 -21
-15 -15 -16 -16 -15 -15 -16 -16 -16 -16 -16 -17 -17 -18 -18 -19 -19 -19 -19 -19 -20 -20 -20 -20 -20 -20 -21 -21 -21 -21 -22 -23
-15 -16 -16 -16 -16 -16 -16 -16 -16 -16 -17 -18 -18 -18 -18 -18 -18 -19 -19 -20 -20 -20 -20 -20 -20 -21 -21 -21 -22 -23 -23 -23
-15 -15 -15 -15 -15 -15 -16 -16 -16 -17 -17 -18 -18 -18 -19 -18 -19 -19 -20 -20 -20 -20 -20 -20 -21 -21 -21 -22 -22 -23 -23 -24
-15 -15 -14 -15 -15 -15 -15 -15 -16 -17 -17 -17 -18 -18 -18 -19 -19 -19 -19 -20 -20 -20 -20 -21 -21 -21 -22 -22 -23 -23 -24 -25
-15 -15 -15 -15 -15 -16 -16 -17 -18 -18 -18 -18 -18 -18 -19 -19 -19 -19 -20 -20 -20 -20 -21 -21 -22 -22 -22 -23 -24 -25 -25 -26
-15 -15 -16 -16 -16 -16 -17 -18 -18 -18 -18 -18 -18 -19 -19 -19 -19 -20 -20 -20 -21 -21 -22 -22 -22 -23 -23 -24 -25 -26 -26 -26
-16 -17 -17 -16 -17 -17 -17 -17 -17 -17 -18 -18 -19 -19 -20 -20 -20 -20 -20 -21 -22 -22 -23 -23 -23 -24 -24 -25 -26 -26 -27 -28
-16 -16 -16 -16 -16 -17 -17 -17 -18 -18 -19 -20 -20 -20 -20 -20 -20 -20 -21 -22 -23 -23 -23 -24 -24 -25 -26 -26 -27 -28 -29 -29
Height
5791 5793 5795 5798 5798 5797 5797 5797 5798 5796 5797 5796 5796 5797 5799 5800 5799 5797 5795 5792 5787 5784 5781 5776 5770 5766 5761 5756 5750 5745 5741 5736
5791 5791 5792 5794 5793 5794 5794 5795 5796 5796 5795 5796 5796 5797 5797 5796 5792 5790 5787 5784 5780 5776 5772 5766 5761 5755 5750 5745 5739 5734 5728 5723
5791 5793 5793 5792 5794 5793 5793 5794 5794 5793 5793 5794 5794 5792 5790 5788 5786 5783 5780 5775 5770 5765 5760 5754 5749 5743 5738 5732 5728 5722 5717 5713
5792 5793 5791 5792 5792 5791 5790 5789 5789 5790 5791 5792 5790 5788 5786 5782 5779 5775 5770 5765 5759 5754 5749 5744 5739 5733 5727 5721 5717 5711 5706 5701
5789 5790 5791 5792 5792 5789 5787 5786 5786 5787 5787 5788 5786 5782 5779 5776 5771 5766 5760 5755 5751 5746 5741 5735 5728 5723 5716 5711 5705 5700 5695 5689
5788 5787 5786 5787 5787 5786 5784 5783 5782 5782 5782 5781 5780 5777 5774 5769 5764 5759 5753 5748 5743 5737 5730 5723 5718 5711 5705 5700 5695 5689 5682 5676
5781 5781 5781 5781 5781 5781 5781 5781 5781 5779 5776 5774 5771 5767 5763 5757 5751 5746 5741 5736 5730 5723 5718 5712 5706 5700 5695 5689 5683 5676 5669 5663
5775 5777 5777 5776 5775 5776 5777 5777 5775 5772 5769 5766 5762 5756 5751 5746 5741 5736 5731 5725 5719 5712 5707 5702 5696 5690 5684 5677 5670 5663 5656 5649
5773 5773 5773 5772 5771 5771 5769 5768 5767 5765 5761 5757 5753 5748 5744 5739 5733 5727 5721 5714 5709 5703 5697 5691 5686 5680 5673 5665 5657 5649 5642 5634
5772 5771 5771 5771 5769 5768 5766 5765 5761 5758 5754 5750 5746 5741 5735 5729 5723 5717 5711 5706 5700 5694 5687 5681 5673 5667 5660 5652 5644 5635 5626 5618
5768 5769 5769 5768 5767 5765 5763 5760 5756 5751 5746 5742 5737 5732 5725 5719 5714 5708 5702 5696 5691 5684 5677 5669 5661 5652 5645 5637 5629 5620 5611 5601
5765 5765 5764 5763 5761 5758 5755 5751 5746 5741 5737 5733 5728 5721 5715 5710 5704 5698 5696 5688 5680 5673 5664 5656 5646 5638 5629 5620 5611 5602 5592 5582
5760 5759 5759 5757 5754 5752 5748 5743 5737 5732 5725 5720 5716 5711 5707 5701 5695 5689 5683 5675 5667 5659 5650 5642 5633 5625 5614 5604 5594 5584 5573 5562
5752 5751 5750 5748 5745 5743 5740 5735 5730 5725 5718 5713 5707 5702 5696 5689 5684 5678 5670 5661 5652 5644 5636 5628 5619 5609 5598 5587 5576 5566 5557 5547
5743 5741 5739 5735 5732 5728 5724 5721 5716 5712 5707 5702 5695 5689 5683 5676 5670 5663 5656 5648 5640 5632 5623 5614 5603 5591 5580 5569 5558 5549 5540 5531
5734 5731 5728 5724 5720 5717 5712 5708 5702 5698 5693 5688 5682 5676 5669 5663 5657 5650 5644 5636 5627 5618 5608 5597 5586 5575 5563 5553 5542 5531 5523 5513
5722 5719 5717 5715 5712 5706 5701 5696 5691 5686 5680 5675 5670 5664 5657 5651 5645 5638 5630 5622 5612 5601 5590 5580 5570 5560 5549 5537 5526 5517 5509 5499
5719 5718 5714 5709 5702 5696 5690 5685 5680 5675 5671 5666 5659 5652 5645 5639 5632 5624 5615 5606 5595 5585 5574 5565 5555 5545 5534 5523 5513 5503 5493 5483
5707 5704 5700 5694 5690 5684 5679 5674 5670 5665 5659 5653 5646 5639 5633 5625 5618 5608 5598 5588 5578 5569 5559 5548 5539 5527 5517 5508 5498 5489 5480 5471
Wind_Speed
5 3 3 4 4 7 10 13 12 13 14 13 11 8 6 8 12 16 20 23 27 31 34 37 40 41 44 46 47 47 48 48
3 3 6 9 10 13 13 11 11 11 10 7 6 7 10 14 19 23 27 30 33 36 39 42 44 47 48 50 50 50 49 49
4 4 7 12 12 13 13 12 11 5 6 8 11 13 17 22 25 29 32 34 38 42 45 48 49 50 52 53 53 51 50 49
1 2 6 10 12 13 14 13 12 4 7 11 15 18 23 27 31 34 37 40 44 47 50 51 54 54 56 57 54 52 51 51
5 4 6 12 15 12 12 13 13 9 11 15 19 24 28 31 35 39 42 45 47 49 53 55 56 57 57 54 53 53 53 55
6 7 11 13 13 10 10 10 12 13 18 22 25 29 33 36 39 42 46 48 51 53 56 57 56 56 54 53 53 54 55 53
13 13 13 12 10 6 7 6 12 16 21 27 32 36 39 42 46 48 51 54 56 57 57 57 57 55 55 56 56 58 56 55
12 12 12 8 9 10 11 13 18 22 27 32 36 40 43 48 51 53 55 57 58 59 57 58 59 55 58 59 60 59 59 62
11 7 4 6 10 16 19 22 24 28 33 36 39 42 47 51 53 54 56 58 58 58 59 61 58 57 60 62 61 61 63 65
5 2 7 11 15 18 22 27 29 33 37 40 43 46 51 52 53 54 56 56 57 61 59 60 59 62 62 60 63 66 67 68
9 9 12 16 19 24 27 30 34 38 41 43 43 49 50 51 53 55 56 58 58 59 58 59 61 63 62 65 68 70 73 74
14 15 17 21 25 29 33 37 41 42 42 42 44 45 48 52 55 56 52 59 57 56 59 62 62 62 66 67 70 74 83 85
18 19 23 27 29 33 37 39 39 43 42 44 45 45 49 54 57 55 52 52 56 59 61 61 61 65 70 72 74 81 85 84
22 28 31 32 34 35 33 36 38 39 42 44 47 47 51 57 53 49 51 55 59 62 62 63 65 70 74 76 82 85 82 84
31 34 33 36 39 42 43 45 42 38 42 48 47 52 54 52 51 54 56 58 60 62 65 68 71 71 73 79 84 82 84 78
33 35 37 41 45 47 47 43 42 42 46 47 49 51 52 54 55 56 56 60 62 65 69 73 77 75 76 81 81 78 79 75
38 42 46 49 49 49 44 43 41 45 46 48 51 52 54 55 55 56 58 61 66 68 72 75 81 77 77 78 76 74 76 75
42 43 43 46 48 48 46 44 47 49 50 50 51 52 53 53 56 58 63 65 67 69 71 78 79 85 84 75 72 73 67 61
44 46 47 49 47 46 47 48 48 48 48 49 50 50 53 56 59 64 68 61 71 74 76 78 83 79 72 73 69 61 53 52
Wind_Direction
107 85 68 48 15 355 348 353 352 344 327 322 313 298 290 285 288 303 305 307 310 310 310 311 314 314 313 314 313 312 311 309
125 40 20 25 11 350 345 346 342 330 316 321 299 300 305 301 304 308 309 310 312 313 314 315 316 315 315 313 313 313 309 309
80 39 10 8 357 348 338 333 340 329 326 319 310 316 309 306 308 308 310 313 314 316 317 317 316 314 315 315 313 311 309 309
153 8 6 349 336 338 333 325 330 314 310 305 306 309 306 307 308 309 312 314 316 317 316 314 313 314 314 313 313 311 309 309
297 334 336 326 322 330 325 312 306 288 290 296 304 307 305 305 308 311 313 314 314 312 310 311 313 314 313 313 311 310 310 311
275 296 322 316 318 319 308 298 295 291 290 296 299 298 299 305 308 309 309 310 310 308 310 312 313 312 312 311 309 309 309 307
302 305 310 309 308 321 294 292 282 280 289 294 295 301 306 310 311 311 311 310 309 310 311 312 312 309 309 308 308 309 307 303
318 311 303 311 314 306 300 295 291 296 295 296 301 304 309 310 309 309 309 308 309 310 311 311 310 307 305 305 306 305 305 303
300 309 301 297 307 303 306 303 302 300 301 301 304 303 308 308 306 306 307 308 309 309 310 309 308 306 306 306 304 302 304 305
260 282 275 294 296 295 297 298 301 301 301 304 304 303 305 305 305 306 305 306 310 307 306 306 306 306 306 304 304 304 305 305
283 284 286 288 291 296 298 301 300 301 303 304 300 300 303 305 306 305 307 308 303 305 305 305 304 303 304 305 306 306 305 305
281 285 289 294 298 300 301 303 304 305 306 301 299 304 306 306 305 304 293 299 305 304 304 304 304 303 305 307 307 307 311 312
280 288 293 296 297 298 299 303 305 306 304 305 305 303 302 301 301 306 307 305 303 304 302 303 305 305 305 303 305 310 311 312
289 292 290 291 292 297 300 303 301 296 296 300 298 301 298 300 304 305 303 302 302 303 304 304 302 302 303 306 307 311 312 312
293 291 295 299 306 310 307 310 305 291 288 291 291 294 299 301 303 304 306 305 304 304 304 302 302 302 303 305 309 310 313 311
294 298 297 306 309 309 307 303 298 293 295 294 296 299 303 304 305 306 306 303 302 302 303 304 304 303 305 305 307 310 310 308
301 307 306 305 305 306 301 299 290 291 294 297 302 302 303 304 304 303 302 303 304 302 303 308 306 304 301 302 305 308 304 313
292 292 295 299 300 300 298 295 297 298 299 302 302 302 300 300 303 304 305 304 304 307 307 306 306 306 305 308 303 305 318 321
298 300 301 299 299 297 299 301 300 300 300 300 299 300 302 303 306 306 307 302 307 308 305 305 305 308 307 302 312 322 322 319